Lansing, MI

10:03 AM EST on January 22, 2018 (GMT -0500)
Capital City

Weather History for KLAN - October, 2012

Change the Weather History Date:

Tuesday, October 9, 2012

  Actual Average Record
Temperature  
Mean Temperature 51 °F 53 °F  
Max Temperature 62 °F 63 °F 84 °F (1939)
Min Temperature 40 °F 43 °F 23 °F (1989)
Degree Days  
Heating Degree Days 14 13  
Month to date heating degree days 118 102  
Since 1 July heating degree days 283 290  
Cooling Degree Days 0 0  
Month to date cooling degree days 1 4  
Year to date cooling degree days 936 622  
Moisture  
Dew Point 33 °F    
Average Humidity 52    
Maximum Humidity 65    
Minimum Humidity 39    
Precipitation  
Precipitation 0.00 in 0.09 in 1.28 in (1939)
Month to date precipitation 0.30 0.80  
Year to date precipitation 21.89 25.39  
Snow  
Snow 0.00 in 0.10 in T in (1993)
Month to date snowfall 0.0 0.1  
Since 1 July snowfall 0.0 0.1  
Since 1 September snowfall 0.0 0.1  
Snow Depth 0.00 in    
Sea Level Pressure  
Sea Level Pressure 29.97 in    
Wind  
Wind Speed 14 mph (South)    
Max Wind Speed 25 mph    
Max Gust Speed 33 mph    
Visibility 10 miles    
Events      
T = Trace of Precipitation, MM = Missing Value Source: NWS Daily Summary

Daily Weather History Graph

Daily Weather History Graph

Search for Another Location

Airport or City:

Trip Planner

Search our weather history database for the weather conditions in past years. The results will help you decide how hot, cold, wet, or windy it might be!

Date:

Astronomy

Oct. 09, 2012 Rise Set
Actual Time 7:45 AM EDT 7:05 PM EDT
Civil Twilight 7:16 AM EDT 7:33 PM EDT
Nautical Twilight 6:44 AM EDT 8:05 PM EDT
Astronomical Twilight 6:11 AM EDT 8:38 PM EDT
Moon 1:12 AM EDT (10/9) 3:39 PM EDT (10/9)
Length of Visible Light 12h 16m
Length of Day
11h 19m
Last Quarter, 37% of the Moon is Illuminated
Oct 9
Last Quarter
Oct 15
New
Oct 21
First Quarter
Oct 29
Full
Nov 6
Last Quarter

Hourly Weather History & Observations

Time (EDT) Temp. Windchill Dew Point Humidity Pressure Visibility Wind Dir Wind Speed Gust Speed Precip Events Conditions
12:53 AM 42.1 °F 36.1 °F 27.0 °F 55% 30.08 in 10.0 mi South 10.4 mph - N/A   Scattered Clouds
1:53 AM 41.0 °F 36.4 °F 27.0 °F 57% 30.08 in 10.0 mi South 6.9 mph - N/A   Scattered Clouds
2:53 AM 41.0 °F 35.2 °F 28.0 °F 60% 30.08 in 10.0 mi South 9.2 mph - N/A   Scattered Clouds
3:53 AM 41.0 °F 35.2 °F 28.4 °F 61% 30.05 in 10.0 mi South 9.2 mph - N/A   Scattered Clouds
4:53 AM 39.2 °F 32.5 °F 28.4 °F 65% 30.05 in 10.0 mi South 10.4 mph - N/A   Mostly Cloudy
5:53 AM 41.0 °F 35.8 °F 28.9 °F 62% 30.05 in 10.0 mi South 8.1 mph - N/A   Mostly Cloudy
6:53 AM 41.0 °F 35.2 °F 30.0 °F 65% 30.05 in 10.0 mi South 9.2 mph - N/A   Mostly Cloudy
7:53 AM 41.0 °F 35.2 °F 30.0 °F 65% 30.04 in 10.0 mi South 9.2 mph - N/A   Mostly Cloudy
8:53 AM 45.0 °F 40.1 °F 30.9 °F 58% 30.05 in 10.0 mi South 9.2 mph - N/A   Scattered Clouds
9:53 AM 48.9 °F - 33.1 °F 54% 30.04 in 10.0 mi SSW 13.8 mph - N/A   Scattered Clouds
10:53 AM 53.1 °F - 34.0 °F 48% 30.02 in 10.0 mi SSW 16.1 mph 28.8 mph N/A   Partly Cloudy
11:53 AM 57.0 °F - 35.1 °F 44% 30.00 in 10.0 mi SSW 21.9 mph 29.9 mph N/A   Scattered Clouds
12:53 PM 60.1 °F - 36.0 °F 41% 29.98 in 10.0 mi South 19.6 mph 27.6 mph N/A   Mostly Cloudy
1:53 PM 61.0 °F - 36.0 °F 39% 29.94 in 10.0 mi SSW 20.7 mph 26.5 mph N/A   Mostly Cloudy
2:53 PM 61.0 °F - 35.1 °F 38% 29.91 in 10.0 mi South 19.6 mph 24.2 mph N/A   Mostly Cloudy
3:53 PM 60.1 °F - 35.1 °F 39% 29.90 in 10.0 mi SSW 18.4 mph 28.8 mph N/A   Mostly Cloudy
4:53 PM 60.1 °F - 36.0 °F 41% 29.89 in 10.0 mi SSW 17.3 mph 26.5 mph N/A   Mostly Cloudy
5:53 PM 60.1 °F - 35.1 °F 39% 29.88 in 10.0 mi SSW 19.6 mph 25.3 mph N/A   Mostly Cloudy
6:53 PM 57.9 °F - 35.1 °F 42% 29.87 in 10.0 mi SSW 12.7 mph - N/A   Mostly Cloudy
7:53 PM 57.0 °F - 36.0 °F 45% 29.87 in 10.0 mi South 12.7 mph 19.6 mph N/A   Mostly Cloudy
8:53 PM 55.9 °F - 36.0 °F 47% 29.86 in 10.0 mi South 10.4 mph - N/A   Mostly Cloudy
9:53 PM 55.0 °F - 36.0 °F 49% 29.84 in 10.0 mi South 12.7 mph - N/A   Overcast
10:53 PM 55.0 °F - 36.0 °F 49% 29.81 in 10.0 mi SSW 15.0 mph 26.5 mph N/A   Overcast
11:53 PM 54.0 °F - 37.0 °F 53% 29.78 in 10.0 mi South 12.7 mph - N/A   Mostly Cloudy